Flag for Germany Weather past 2 weeks in Würselen, North Rhine-Westphalia, Germany

Now
50 °F

Clear.


Feels Like: 47 °F
Forecast: 44 / 55 °F
Wind: 8 mph from West

Location: Geilenkirchen Airport

Current Time: Oct 23, 2014 at 12:04:00 AM

Latest Report: Oct 22, 2014 at 10:50 PM


Visibility: 10 mi

Pressure: 30.21 "Hg

Humidity: 88%

Dew point: 46 °F

Location of WürselenLocation

Historic Weather in Würselen — Graph

°F

Würselen temperature yesterday

Maximum temperature yesterday: 54 °F (at 1:50 PM)
Minimum temperature yesterday: 43 °F (at 2:50 AM)
Average temperature yesterday: 48 °F

Past Weeks' High & Low Weather Summary

 TemperatureHumidityPressure
High75 °F (Oct 18, 2:50 PM)100% (Oct 8, 12:50 PM)30.21 "Hg (Oct 8, 12:50 PM)
Low43 °F (Oct 22, 2:50 AM)0% (Oct 12, 11:50 PM)29.53 "Hg (Oct 21, 3:50 PM)
Average58 °F83%29.83 "Hg
* Reported Oct 7 10:50 PM — Oct 22 10:50 PM, Würselen, Weather by CustomWeather, © 2014

Note: Actual official high and low records may vary slightly from our data, if they occured in-between our weather recording intervals... More about our weather records

Advertising

Würselen weather history for previous 24 hours

 ConditionsComfort  
Time TempWeatherWind HumidityBarometerVisibility
10:50 PM
Oct 22
50 °FClear.8 mph88%30.21 "Hg10 mi
9:50 PM50 °FClear.9 mph100%30.18 "Hg10 mi
8:50 PM48 °FPassing clouds.8 mph94%30.18 "HgN/A
7:50 PM50 °FPassing clouds.12 mph82%30.15 "HgN/A
6:50 PM50 °FPartly sunny.10 mph82%30.15 "HgN/A
5:50 PM52 °FBroken clouds.10 mph82%30.15 "HgN/A
4:50 PM52 °FPassing clouds.15 mph82%30.12 "HgN/A
3:50 PM54 °FScattered clouds.20 mph77%30.12 "HgN/A
2:50 PM54 °FScattered clouds.18 mph77%30.09 "HgN/A
1:50 PM54 °FScattered clouds.15 mph88%30.09 "HgN/A
12:50 PM50 °FBroken clouds.17 mph82%30.12 "HgN/A
11:50 AM48 °FBroken clouds.14 mph87%30.09 "HgN/A
10:50 AM46 °FPartly sunny.14 mph93%30.09 "HgN/A
9:50 AM45 °FPartly sunny.14 mph93%30.07 "HgN/A
8:50 AM45 °FPassing clouds.13 mph93%30.04 "HgN/A
7:50 AM45 °FLight rain. Passing clouds.13 mph93%30.04 "HgN/A
6:50 AM45 °FLight rain. Passing clouds.18 mph93%30.01 "HgN/A
5:50 AM45 °FSprinkles. Passing clouds.15 mph93%29.98 "HgN/A
4:50 AM45 °FPartly cloudy.16 mph87%29.98 "HgN/A
3:50 AM45 °FSprinkles. Partly cloudy.14 mph93%29.95 "HgN/A
2:50 AM43 °FRain showers. Partly cloudy.15 mph100%29.95 "Hg2 mi
1:50 AM45 °FPassing clouds.9 mph87%29.92 "HgN/A
12:50 AM46 °FSprinkles. Passing clouds.16 mph87%29.89 "HgN/A
Weather by CustomWeather, © 2014

See weather overviewHow to use our weather pages